Terug naar catalogus

STARLINK-34662

ActiefCommunicatieVLEO
NORAD 64799·PAYLOAD·🇺🇸 United States

Gelanceerd Jul 16, 2025 vanaf Vandenberg Space Force Base

Loading…

Volgende Passages (komende 24 uur)

TLE

VersSource: CelesTrak SupGP

Epoch: Sep 15, 2026, 03:21 UTC

1 64799C 25150K   26258.14006944  .00050391  00000+0  42236-2 0  2583
2 64799  70.0029  16.6207 0003347 268.0867 275.0296 14.98298600    10

Volg STARLINK-34662 in realtime met AllMySat

Download on the App Store